Location: B?dimalle
(17.1788°N, 80.5377°E)
Time: 15:35:31
(UTC+00:00)

Vanguard 1 - Pass Details

Date: 23 February 2026
Orbit: 653 x 3818 km, 34.2° (Epoch: 9 March)

Event Time Altitude Azimuth Distance (km) Brightness Sun altitude
Rises 17:19:36 0° 288° (WNW) 7,429 14.9 -66.5°
Reaches altitude 10° 17:25:00 10° 281° (W) 6,663 14.5 -67.8°
Enters shadow 17:40:33 35° 240° (WSW) 5,102 13.5 -71.3°
